timestamp,surface_pressure_avg,surface_temp_avg,battery_voltage,lat,long
2020-03-03 00:09:01+00:00,247.0631,0.1,12.89,47.84626,-54.09684
2020-03-03 00:19:01+00:00,249.4498,0.16,12.65,47.84626,-54.09684
2020-03-03 00:29:01+00:00,250.5431,0.27,12.65,47.84626,-54.09684
2020-03-03 00:39:01+00:00,253.0781,0.29,12.65,47.84626,-54.09684
2020-03-03 00:49:01+00:00,254.3031,0.27,12.65,47.84626,-54.09684
2020-03-03 00:59:01+00:00,252.3281,0.2,12.65,47.84626,-54.09684
2020-03-03 01:09:01+00:00,250.4282,0.2,12.65,47.84626,-54.09684
2020-03-03 01:19:01+00:00,250.5032,0.2,12.65,47.84626,-54.09684
2020-03-03 01:29:01+00:00,255.2247,0.2,12.65,47.84626,-54.09684
2020-03-03 01:39:01+00:00,259.0965,0.2,12.65,47.84626,-54.09684
2020-03-03 01:49:01+00:00,260.0032,0.14,12.65,47.84626,-54.09684
2020-03-03 01:59:01+00:00,258.2531,0.0,12.65,47.84626,-54.09684
2020-03-03 02:09:01+00:00,264.928,-0.1,12.65,47.84626,-54.09684
2020-03-03 02:19:01+00:00,272.4431,-0.1,12.57,47.84626,-54.09684
2020-03-03 02:29:01+00:00,276.7397,-0.1,12.57,47.84626,-54.09684
2020-03-03 02:39:01+00:00,276.0114,-0.03,12.57,47.84626,-54.09684
2020-03-03 02:49:01+00:00,283.033,-0.0,12.57,47.84626,-54.09684
2020-03-03 02:59:01+00:00,290.0031,0.1,12.57,47.84626,-54.09684
2020-03-03 03:09:01+00:00,292.7479,0.18,12.57,47.84626,-54.09684
2020-03-03 03:19:01+00:00,293.8948,0.2,12.57,47.84626,-54.09684
2020-03-03 03:29:01+00:00,299.238,0.2,12.57,47.84626,-54.09684
2020-03-03 03:39:01+00:00,301.64799999999997,0.17,12.57,47.84626,-54.09684
2020-03-03 03:49:01+00:00,301.4265,0.17,12.57,47.84626,-54.09684
2020-03-03 03:59:01+00:00,304.5164,0.26,12.57,47.84626,-54.09684
2020-03-03 04:09:01+00:00,311.7097,0.3,12.57,47.84626,-54.09684
2020-03-03 04:19:01+00:00,312.383,0.31,12.57,47.84626,-54.09684
2020-03-03 04:29:01+00:00,310.7963,0.3,12.57,47.84626,-54.09684
2020-03-03 04:39:01+00:00,315.3297,0.3,12.57,47.84626,-54.09684
2020-03-03 04:49:01+00:00,322.5262,0.3,12.57,47.84626,-54.09684
2020-03-03 04:59:01+00:00,322.238,0.3,12.57,47.84626,-54.09684
2020-03-03 05:09:01+00:00,320.7131,0.3,12.57,47.84626,-54.09684
2020-03-03 05:19:01+00:00,325.2414,0.29,12.49,47.84626,-54.09684
2020-03-03 05:29:01+00:00,329.5095,0.29,12.49,47.84626,-54.09684
2020-03-03 05:39:01+00:00,329.163,0.28,12.49,47.84626,-54.09684
2020-03-03 05:49:01+00:00,330.0597,0.2,12.49,47.84626,-54.09684
2020-03-03 05:59:01+00:00,327.0996,0.2,12.49,47.84626,-54.09684
2020-03-03 06:09:01+00:00,323.9647,0.2,12.49,47.84626,-54.09684
2020-03-03 06:19:01+00:00,324.6296,0.2,12.49,47.84626,-54.09684
2020-03-03 06:29:01+00:00,326.4363,0.2,12.49,47.84626,-54.09684
2020-03-03 06:39:01+00:00,319.6597,0.29,12.49,47.84626,-54.09684
2020-03-03 06:49:01+00:00,315.3963,0.3,12.49,47.84626,-54.09684
2020-03-03 06:59:01+00:00,313.4329,0.3,12.49,47.84626,-54.09684
2020-03-03 07:09:01+00:00,309.2513,0.3,12.49,47.84626,-54.09684
2020-03-03 07:19:01+00:00,302.9281,0.3,12.41,47.84626,-54.09684
2020-03-03 07:29:01+00:00,300.2897,0.3,12.41,47.84626,-54.09684
2020-03-03 07:39:01+00:00,300.4048,0.34,12.41,47.84626,-54.09684
2020-03-03 07:49:01+00:00,290.998,0.39,12.41,47.84626,-54.09684
2020-03-03 07:59:01+00:00,281.9647,0.4,12.41,47.84626,-54.09684
2020-03-03 08:09:01+00:00,275.5531,0.38,12.41,47.84626,-54.09684
2020-03-03 08:19:01+00:00,270.4114,0.3,12.41,47.84626,-54.09684
2020-03-03 08:29:01+00:00,262.4514,0.2,12.41,47.84626,-54.09684
2020-03-03 08:39:01+00:00,258.7031,0.19,12.41,47.84626,-54.09684
2020-03-03 08:49:01+00:00,256.2997,0.1,12.41,47.84626,-54.09684
2020-03-03 08:59:01+00:00,251.1297,0.1,12.41,47.84626,-54.09684
2020-03-03 09:09:01+00:00,248.3481,0.0,12.41,47.84626,-54.09684
2020-03-03 09:19:01+00:00,244.5865,-0.1,12.41,47.84626,-54.09684
2020-03-03 09:29:01+00:00,238.5547,-0.2,12.41,47.84626,-54.09684
2020-03-03 09:39:01+00:00,233.6014,-0.4,12.41,47.84626,-54.09684
2020-03-03 09:49:01+00:00,227.8198,-0.6,12.41,47.84626,-54.09684
2020-03-03 09:59:01+00:00,222.9865,-0.7,12.41,47.84626,-54.09684
2020-03-03 10:09:01+00:00,222.5948,-0.8,12.41,47.84626,-54.09684
2020-03-03 10:19:01+00:00,220.9765,-0.8,12.41,47.84626,-54.09684
2020-03-03 10:29:01+00:00,216.9214,-0.75,12.41,47.84626,-54.09684
2020-03-03 10:39:01+00:00,218.4731,-0.73,12.41,47.84626,-54.09684
2020-03-03 10:49:01+00:00,227.3714,-0.7,12.41,47.84626,-54.09684
2020-03-03 10:59:01+00:00,230.6481,-0.7,12.41,47.84626,-54.09684
2020-03-03 11:09:01+00:00,230.5048,-0.7,12.41,47.84626,-54.09684
2020-03-03 11:19:01+00:00,232.4398,-0.7,13.44,47.84626,-54.09684
2020-03-03 11:29:01+00:00,235.9764,-0.64,13.44,47.84626,-54.09684
2020-03-03 11:39:01+00:00,234.6381,-0.63,13.44,47.84626,-54.09684
2020-03-03 11:49:01+00:00,235.5581,-0.62,13.44,47.84626,-54.09684
2020-03-03 11:59:01+00:00,239.5481,-0.6,13.44,47.84626,-54.09684
2020-03-03 12:09:01+00:00,239.3047,-0.6,13.44,47.84626,-54.09684
2020-03-03 12:19:01+00:00,233.5715,-0.6,13.44,47.84626,-54.09684
2020-03-03 12:29:01+00:00,235.4848,-0.6,13.44,47.84626,-54.09684
2020-03-03 12:39:01+00:00,236.2815,-0.6,13.44,47.84626,-54.09684
2020-03-03 12:49:01+00:00,229.0281,-0.6,13.44,47.84626,-54.09684
2020-03-03 12:59:01+00:00,225.4064,-0.6,13.44,47.84626,-54.09684
2020-03-03 13:09:01+00:00,231.2397,-0.6,13.44,47.84626,-54.09684
2020-03-03 13:19:01+00:00,233.4864,-0.6,14.32,47.84626,-54.09684
2020-03-03 13:29:01+00:00,233.6747,-0.6,14.32,47.84626,-54.09684
2020-03-03 13:39:01+00:00,235.4248,-0.59,14.32,47.84626,-54.09684
2020-03-03 13:49:01+00:00,239.1564,-0.59,14.32,47.84626,-54.09684
2020-03-03 13:59:01+00:00,244.6531,-0.56,14.32,47.84626,-54.09684
2020-03-03 14:09:01+00:00,247.5614,-0.45,14.32,47.84626,-54.09684
2020-03-03 14:19:01+00:00,248.8631,-0.16,14.24,47.84626,-54.09684
2020-03-03 14:29:01+00:00,252.2648,0.26,14.24,47.84626,-54.09684
2020-03-03 14:39:01+00:00,255.6181,0.34,14.24,47.84626,-54.09684
2020-03-03 14:49:01+00:00,256.6797,0.4,14.24,47.84626,-54.09684
2020-03-03 14:59:01+00:00,258.3548,0.4,14.24,47.84626,-54.09684
2020-03-03 15:09:01+00:00,267.2281,0.4,14.24,47.84626,-54.09684
2020-03-03 15:19:01+00:00,276.9431,0.4,14.16,47.84626,-54.09684
2020-03-03 15:29:01+00:00,280.9231,0.4,14.16,47.84626,-54.09684
2020-03-03 15:39:01+00:00,280.1263,0.46,14.16,47.84626,-54.09684
2020-03-03 15:49:01+00:00,280.7047,0.48,14.16,47.84626,-54.09684
2020-03-03 15:59:01+00:00,279.8747,0.5,14.16,47.84626,-54.09684
2020-03-03 16:09:01+00:00,273.2681,0.33,14.16,47.84626,-54.09684
2020-03-03 16:19:01+00:00,272.3165,0.2,14.32,47.84626,-54.09684
2020-03-03 16:29:01+00:00,281.2114,0.27,14.32,47.84626,-54.09684
2020-03-03 16:39:01+00:00,287.7247,0.5,14.32,47.84626,-54.09684
2020-03-03 16:49:01+00:00,285.7731,0.5,14.32,47.84626,-54.09684
2020-03-03 16:59:01+00:00,290.9963,0.5,14.32,47.84626,-54.09684
2020-03-03 17:09:01+00:00,296.9147,0.5,14.32,47.84626,-54.09684
2020-03-03 17:19:01+00:00,293.813,0.5,14.32,47.84626,-54.09684
2020-03-03 17:29:01+00:00,294.558,0.5,14.32,47.84626,-54.09684
2020-03-03 17:39:01+00:00,304.1746,0.5,14.32,47.84626,-54.09684
2020-03-03 17:49:01+00:00,305.0179,0.54,14.32,47.84626,-54.09684
2020-03-03 17:59:01+00:00,299.3613,0.58,14.32,47.84626,-54.09684
2020-03-03 18:09:01+00:00,299.0096,0.59,14.32,47.84626,-54.09684
2020-03-03 18:19:01+00:00,301.6946,0.59,14.0,47.84626,-54.09684
2020-03-03 18:29:01+00:00,297.9563,0.57,14.0,47.84626,-54.09684
2020-03-03 18:39:01+00:00,299.4714,0.5,14.0,47.84626,-54.09684
2020-03-03 18:49:01+00:00,301.508,0.5,14.0,47.84626,-54.09684
2020-03-03 18:59:01+00:00,298.803,0.48,14.0,47.84626,-54.09684
2020-03-03 19:09:01+00:00,288.4847,0.45,14.0,47.84626,-54.09684
2020-03-03 19:19:01+00:00,285.188,0.43,13.6,47.84626,-54.09684
2020-03-03 19:29:01+00:00,281.9114,0.4,13.6,47.84626,-54.09684
2020-03-03 19:39:01+00:00,274.7947,0.4,13.6,47.84626,-54.09684
2020-03-03 19:49:01+00:00,274.353,0.4,13.6,47.84626,-54.09684
2020-03-03 19:59:01+00:00,276.7081,0.4,13.6,47.84626,-54.09684
2020-03-03 20:09:01+00:00,271.4597,0.4,13.6,47.84626,-54.09684
2020-03-03 20:19:01+00:00,263.268,0.4,13.29,47.84626,-54.09684
2020-03-03 20:29:01+00:00,261.9464,0.4,13.29,47.84626,-54.09684
2020-03-03 20:39:01+00:00,258.7831,0.39,13.29,47.84626,-54.09684
2020-03-03 20:49:01+00:00,249.1614,0.39,13.29,47.84626,-54.09684
2020-03-03 20:59:01+00:00,239.6714,0.39,13.29,47.84626,-54.09684
2020-03-03 21:09:01+00:00,236.4015,0.38,13.29,47.84626,-54.09684
2020-03-03 21:19:01+00:00,231.433,0.38,12.97,47.84626,-54.09684
2020-03-03 21:29:01+00:00,225.8081,0.39,12.97,47.84626,-54.09684
2020-03-03 21:39:01+00:00,225.2481,0.38,12.97,47.84626,-54.09684
2020-03-03 21:49:01+00:00,224.4848,0.38,12.97,47.84626,-54.09684
2020-03-03 21:59:01+00:00,219.0048,0.39,12.97,47.84626,-54.09684
2020-03-03 22:09:01+00:00,215.5464,0.39,12.97,47.84626,-54.09684
2020-03-03 22:19:01+00:00,214.1515,0.39,12.65,47.84626,-54.09684
2020-03-03 22:29:01+00:00,209.6548,0.4,12.65,47.84626,-54.09684
2020-03-03 22:39:01+00:00,203.7481,0.4,12.65,47.84626,-54.09684
2020-03-03 22:49:01+00:00,204.5648,0.4,12.65,47.84626,-54.09684
2020-03-03 22:59:01+00:00,205.4898,0.4,12.65,47.84626,-54.09684
2020-03-03 23:09:01+00:00,200.2114,0.4,12.65,47.84626,-54.09684
2020-03-03 23:19:01+00:00,199.7614,0.4,12.65,47.84626,-54.09684
2020-03-03 23:29:01+00:00,204.1981,0.4,12.65,47.84626,-54.09684
2020-03-03 23:39:01+00:00,203.993,0.4,12.65,47.84626,-54.09684
2020-03-03 23:49:01+00:00,204.6982,0.4,12.65,47.84626,-54.09684
2020-03-03 23:59:01+00:00,209.4481,0.4,12.65,47.84626,-54.09684
